Theta_e
301 302 303 300 299 300 301 302 302 300 295 295 297 298 298 299 298 297 298 298 296 295 295 293 291 290 289 288 287 287 287 287 288 289 289 288 287 286 285 285 285 285 285 285
299 301 295 296 297 300 301 301 301 297 295 295 296 295 296 297 298 297 297 297 297 295 293 292 291 290 289 288 287 287 287 287 288 288 288 287 286 286 286 285 284 284 284 284
299 293 293 295 297 298 297 298 297 296 296 296 295 296 301 299 299 299 297 297 298 296 293 290 291 290 289 288 288 287 287 287 287 287 286 287 287 286 286 285 285 284 284 284
293 291 293 295 294 294 298 293 294 295 296 297 296 294 300 298 297 297 298 295 296 296 295 292 291 290 289 289 288 287 287 286 286 286 287 288 288 286 285 285 285 284 284 283
292 292 293 295 292 291 294 293 295 295 296 296 296 294 299 300 297 297 297 297 296 295 294 292 291 291 290 289 288 287 287 286 286 287 287 287 287 286 285 285 285 285 284 284
289 289 290 291 291 292 292 295 295 296 295 298 296 295 297 299 300 300 298 297 297 297 295 295 293 292 291 290 288 288 287 287 286 286 286 287 287 286 286 286 285 285 284 284
291 290 289 290 292 293 294 296 304 302 301 305 295 294 295 300 297 297 295 294 294 293 295 293 292 291 291 290 289 288 287 287 286 286 286 286 286 286 286 286 285 285 285 284
296 295 290 289 291 295 294 296 304 300 304 299 295 295 298 298 297 296 295 296 295 295 294 293 294 292 291 290 289 288 287 287 286 286 286 286 286 286 285 285 285 284 284 284
298 292 288 288 289 290 294 294 295 293 290 294 296 298 298 296 297 296 295 295 295 294 294 294 294 293 291 290 289 289 288 287 287 286 286 286 286 286 286 285 285 284 284 283
296 291 289 287 288 290 292 291 294 295 296 297 300 298 296 295 295 295 295 294 294 294 294 293 294 293 292 291 290 289 288 288 287 287 286 286 286 286 286 285 285 285 284 284
294 297 290 288 288 291 289 292 292 295 297 300 298 298 299 296 295 294 293 294 293 294 292 291 293 294 293 292 290 290 289 288 288 287 286 286 286 286 286 285 285 285 284 284
294 295 292 292 287 287 289 293 294 296 295 293 296 294 297 296 295 293 292 293 293 293 292 291 293 294 293 292 290 290 289 289 288 288 287 287 286 286 286 286 285 285 285 284
290 296 292 295 290 287 286 290 293 292 293 293 294 295 294 293 293 293 292 291 291 292 292 291 292 292 293 292 291 290 289 289 289 288 288 287 287 286 286 286 285 285 285 284
293 293 297 300 300 290 287 288 291 288 289 294 296 295 293 292 293 293 291 291 291 290 290 290 290 291 292 292 291 290 290 289 288 288 288 287 287 286 286 286 285 285 285 285
290 289 286 289 291 291 289 285 289 289 291 291 294 294 294 294 294 294 293 291 291 290 290 288 289 290 291 291 291 290 289 289 288 288 287 287 287 286 286 285 285 285 284 284
283 289 282 286 290 290 287 288 287 290 291 291 292 293 294 290 289 291 290 289 289 288 288 287 289 290 289 290 290 289 289 288 287 287 287 286 286 286 285 285 284 284 284 284
284 284 286 289 288 289 288 287 289 289 286 290 290 292 291 290 290 289 288 287 288 288 287 287 287 289 289 289 289 288 288 287 287 286 286 286 285 285 284 284 284 284 283 283
286 286 288 288 284 287 291 289 286 289 290 290 289 290 288 288 287 286 285 286 287 286 285 286 287 287 287 288 287 288 287 287 285 285 284 284 284 284 283 283 283 282 282 282
284 288 287 286 285 291 291 286 285 286 288 288 290 290 288 285 284 285 285 285 284 283 284 283 282 281 282 283 284 284 283 283 282 280 281 281 281 281 281 281 281 280 280 280
284 283 287 283 288 291 290 287 286 285 287 285 289 289 288 286 287 283 281 283 282 281 280 279 278 277 278 278 280 280 277 277 275 275 275 276 277 277 278 278 278 278 278 278
281 282 285 286 286 289 288 285 285 286 289 285 287 287 286 286 283 281 281 279 278 277 279 276 274 272 272 274 276 274 273 271 271 272 273 274 274 275 275 276 276 276 276 276
285 286 283 284 286 288 285 284 288 287 283 285 284 284 284 283 282 280 278 277 276 275 275 275 272 270 270 271 272 271 269 269 270 271 272 272 272 272 273 273 273 274 274 274
288 288 288 289 289 284 285 287 284 283 283 284 282 282 283 282 281 279 276 274 273 272 272 272 271 269 268 268 269 268 267 268 268 269 269 269 270 270 270 270 271 271 272 273
283 283 287 288 284 285 285 284 282 282 281 280 279 279 281 280 279 277 276 275 273 271 270 270 270 268 266 265 265 265 265 265 266 266 266 267 267 267 267 268 269 270 271 271
285 284 283 286 286 285 286 285 281 279 278 277 276 277 277 277 277 275 273 272 271 269 268 267 267 266 265 264 263 263 263 263 263 264 264 264 264 265 265 266 267 268 269 270
283 285 287 290 288 287 285 282 280 278 277 275 274 273 273 273 273 272 270 268 268 266 265 264 264 263 262 262 261 261 261 261 261 261 262 262 262 263 264 264 265 265 267 268
Wind_Speed
1 3 2 7 6 3 3 2 1 5 2 2 6 10 9 7 9 8 8 7 9 9 16 19 15 12 11 10 8 6 6 5 5 4 5 6 9 9 11 13 14 16 17 18
2 1 5 4 4 1 0 1 0 4 2 1 6 13 11 10 8 10 10 9 8 9 9 20 19 16 15 13 11 10 7 6 6 5 7 7 5 9 10 11 14 15 16 17
1 4 2 2 2 3 4 3 3 2 4 4 6 6 3 1 3 1 8 7 6 10 10 13 20 18 15 15 14 11 9 7 6 6 8 8 8 6 7 7 9 12 13 15
6 2 1 2 5 4 4 3 1 2 4 2 2 4 5 4 5 4 3 7 8 8 9 17 21 20 19 16 13 12 11 9 8 7 4 1 6 6 5 4 6 9 12 13
2 1 1 2 2 3 3 1 3 2 3 3 3 4 4 1 5 4 4 6 7 8 10 11 22 25 22 19 19 15 12 10 9 10 7 6 6 6 5 4 5 7 9 12
4 1 4 3 2 3 4 2 2 1 1 2 3 3 3 2 1 1 3 5 5 4 8 14 25 24 22 22 21 19 17 14 11 10 10 6 6 5 4 3 2 4 6 7
3 2 2 2 3 0 2 1 1 3 3 4 2 2 8 1 4 3 5 6 7 8 5 8 15 22 23 24 22 21 20 18 15 13 11 10 7 6 4 3 1 2 2 3
6 3 3 1 3 1 4 2 3 6 3 1 1 5 5 4 3 2 3 2 2 4 1 7 15 23 23 25 25 22 22 20 18 17 14 11 9 7 5 4 2 1 1 3
4 2 3 5 3 3 3 2 1 6 2 3 4 5 5 5 4 4 4 3 4 3 2 7 12 22 22 25 27 26 24 22 21 18 16 14 12 10 8 5 4 3 4 4
3 5 2 2 2 2 2 3 3 2 2 4 5 4 5 7 8 7 6 5 5 3 2 3 12 21 25 26 26 24 24 25 22 20 18 16 14 12 9 8 7 6 6 7
2 4 1 2 6 5 2 2 0 2 3 4 2 5 4 9 9 9 7 4 5 5 4 5 12 20 27 27 30 29 27 25 24 23 22 19 17 14 12 10 8 7 8 8
3 5 3 3 3 4 2 2 5 4 5 1 1 6 4 8 5 8 7 6 4 2 4 6 11 14 21 25 27 28 28 28 27 25 22 21 18 15 13 11 9 8 9 9
5 2 3 2 2 3 3 5 3 4 1 6 5 5 3 5 5 6 7 6 5 2 3 2 5 9 14 20 22 24 25 26 25 23 23 21 19 17 15 12 11 10 10 10
3 2 5 6 4 5 5 6 9 6 3 3 9 6 4 7 7 6 6 4 1 3 3 2 2 7 10 16 22 22 24 24 24 23 23 22 21 19 17 14 13 11 11 13
3 5 2 2 3 2 5 5 11 9 12 8 8 18 11 8 2 3 2 3 2 3 4 5 2 4 8 10 16 19 20 22 24 24 23 22 19 18 17 16 14 12 13 14
2 3 2 3 5 6 5 6 11 19 10 16 20 21 7 3 6 5 6 7 6 5 5 6 5 3 6 9 13 15 16 19 21 22 20 18 17 18 17 16 14 14 14 15
6 6 3 4 1 2 9 16 20 9 7 14 12 14 7 5 7 4 5 5 5 5 5 6 5 2 2 5 11 12 14 14 16 16 13 13 14 15 14 13 12 13 14 15
6 5 3 3 1 3 5 0 6 17 7 18 8 4 5 6 6 8 6 2 4 6 6 8 14 16 13 6 4 6 8 10 8 6 6 7 8 9 9 10 11 13 14 16
3 4 2 4 4 7 4 6 8 10 12 18 19 20 5 4 5 3 4 5 7 7 12 18 20 20 22 21 13 15 16 16 15 12 7 3 1 4 6 8 11 14 17 20
3 3 3 3 5 9 4 4 6 4 8 4 15 10 8 6 4 3 4 7 10 16 18 17 15 16 17 19 12 14 14 12 12 9 8 7 7 8 10 13 15 17 19 21
3 1 7 4 4 8 4 7 3 6 6 2 1 4 7 4 2 7 8 10 15 15 16 14 16 17 14 13 10 14 12 15 12 11 10 10 11 12 13 15 17 19 21 23
9 10 5 3 2 12 8 5 8 4 3 2 4 5 11 11 9 8 8 9 13 13 15 14 14 14 14 14 12 12 13 12 13 13 13 14 14 14 14 16 18 19 20 21
4 7 7 11 7 2 9 3 3 3 4 3 6 6 6 10 8 9 8 9 13 13 11 12 12 13 16 15 14 11 11 14 15 14 15 16 15 15 15 16 17 18 16 18
3 1 3 3 3 3 4 4 5 5 8 7 8 6 6 9 10 10 9 9 10 10 11 10 11 13 14 15 13 12 12 14 14 15 16 15 15 16 16 16 14 15 16 18
3 8 6 4 1 3 2 5 8 10 10 9 9 8 7 9 8 9 8 10 10 10 10 12 11 11 12 12 12 13 15 16 16 15 14 15 18 17 20 17 16 17 18 17
4 6 5 4 3 3 3 7 11 10 9 9 10 9 13 12 8 13 11 10 9 9 9 10 9 9 9 10 12 14 14 15 16 17 18 18 19 20 18 19 23 19 16 18
Wind_Direction
305 191 168 75 41 15 358 33 290 110 109 306 248 269 256 195 200 218 224 224 191 184 179 172 172 177 173 169 156 147 146 148 98 108 95 84 75 60 53 46 51 46 47 45
145 96 56 32 12 324 130 258 339 87 99 240 314 287 272 240 208 198 193 215 201 173 152 156 169 182 188 180 170 163 160 141 143 157 132 99 84 76 60 39 44 48 46 46
130 60 41 305 122 111 40 357 46 34 299 230 293 281 191 40 30 115 170 187 210 177 170 158 171 185 195 190 182 171 164 152 151 142 119 100 89 90 76 46 38 48 47 45
71 2 269 216 82 354 148 13 79 321 351 327 197 283 339 122 147 123 125 185 209 204 169 162 171 181 194 198 190 178 175 167 161 136 143 105 113 124 100 63 59 40 44 44
166 147 154 130 53 327 135 300 40 345 305 37 160 94 240 138 80 76 98 190 214 211 176 166 171 182 191 191 184 182 181 173 173 150 146 131 132 125 120 83 52 41 28 30
89 276 27 76 127 359 156 167 172 277 320 28 88 123 271 134 101 339 39 27 21 236 175 165 173 180 186 186 182 182 180 182 180 172 164 154 148 136 120 103 73 44 33 18
171 66 98 309 125 29 304 168 67 9 10 227 71 88 243 57 56 357 336 354 5 342 158 151 151 165 178 180 183 186 185 184 188 180 173 168 167 157 159 137 140 100 54 356
153 260 173 337 18 165 205 69 153 189 190 211 303 229 251 126 78 61 31 84 334 337 120 158 167 171 180 182 187 191 192 189 193 189 185 182 180 173 177 190 207 240 282 312
131 94 98 28 336 19 177 215 42 98 28 50 222 256 34 131 182 138 110 126 82 28 8 168 177 176 184 187 193 197 196 195 199 196 193 192 193 190 192 210 228 238 266 287
167 94 348 102 272 123 65 315 99 354 137 270 269 242 214 207 172 148 105 87 113 92 351 205 186 182 188 195 199 202 205 201 201 200 200 201 203 204 205 216 231 238 255 273
111 102 125 23 203 175 164 208 5 85 151 190 255 263 248 158 172 153 129 105 101 136 191 234 215 205 194 195 196 200 203 203 200 203 202 202 206 210 215 224 236 247 260 272
202 108 137 190 56 24 329 248 178 137 229 206 152 269 215 167 132 129 154 143 121 156 227 231 248 230 201 201 196 199 201 201 203 204 204 206 208 214 222 231 245 256 265 269
199 187 87 346 8 13 214 208 252 87 99 198 148 258 196 115 138 174 181 139 203 284 257 249 243 255 226 200 198 202 204 204 202 201 206 209 212 216 225 234 243 255 274 286
117 93 172 186 175 122 185 202 192 149 136 211 223 256 234 197 194 184 193 190 46 1 326 212 293 253 254 211 200 201 202 205 204 202 208 212 216 220 227 232 240 253 271 284
129 183 120 259 140 151 192 177 186 192 212 186 226 232 226 256 108 180 187 97 6 24 24 22 261 258 248 230 199 205 203 200 203 205 208 214 218 225 228 231 239 253 265 277
3 151 115 311 190 205 237 209 199 214 232 258 258 270 237 166 96 93 60 30 9 16 26 5 343 263 252 231 201 200 200 202 209 214 216 219 222 225 229 230 240 252 263 271
147 134 113 253 320 213 287 194 199 198 204 212 222 241 156 179 126 86 35 29 15 8 21 0 350 306 236 220 198 200 199 200 213 221 222 222 220 224 231 237 246 258 267 273
144 136 124 171 20 275 252 138 191 215 233 221 265 235 138 129 110 98 71 66 50 50 31 40 49 65 59 84 155 185 198 208 206 200 166 169 194 212 227 244 256 264 271 275
41 135 149 152 204 299 203 181 161 172 255 217 222 240 163 128 101 88 65 66 78 57 66 68 72 69 64 56 85 104 102 113 112 90 90 80 240 260 271 279 285 288 291 289
47 31 127 144 175 222 236 173 138 127 283 291 211 214 162 131 163 207 103 89 74 70 67 67 68 70 65 50 69 90 80 75 56 34 16 357 338 325 314 309 306 304 304 300
129 110 202 187 224 280 190 155 121 114 245 310 113 147 134 139 166 129 106 90 81 67 74 73 69 62 51 59 65 73 63 44 21 6 359 350 341 332 324 316 312 310 309 307
162 160 179 159 173 261 151 88 176 190 23 102 54 75 96 108 104 98 90 78 70 66 57 67 72 60 51 54 65 59 47 16 3 357 352 347 342 338 330 324 320 320 319 314
204 185 177 188 208 218 181 85 95 89 142 114 104 79 108 119 120 112 95 87 76 64 60 61 78 65 49 42 42 45 17 1 358 355 352 348 344 343 336 334 326 323 323 315
262 186 150 96 262 179 169 74 75 65 97 72 78 82 82 105 112 118 119 115 99 77 60 55 65 58 45 35 29 27 6 360 359 358 356 353 346 337 337 333 331 321 319 318
187 133 158 266 172 103 158 146 136 110 102 98 74 65 90 105 99 107 101 90 80 74 57 54 50 45 36 25 21 6 2 358 359 356 355 346 341 342 334 333 326 321 313 309
190 170 171 210 173 133 81 113 131 131 130 124 114 91 65 89 101 106 95 84 77 71 56 55 50 39 20 13 6 356 358 358 356 350 343 342 336 336 333 327 322 318 309 310